This is the latest recevied weather packets stored in our database for station/object W5ITZ. If no packets are shown the sender has not sent any weather packets the latest 10 day(s).
| Time | Temp. | Humidity | Pressure | Rain* | Wind** | Luminosity | Snow |
|---|---|---|---|---|---|---|---|
| 1777931641 | 26.11° C | 65% | 1011.3 hPa | 0 mm | - | 524 W/m² | - |
| 1777931337 | 26.67° C | 66% | 1011.8 hPa | 0 mm | - | 518 W/m² | - |
| 1777931034 | 26.11° C | 65% | 1011.6 hPa | 0 mm | - | 603 W/m² | - |
| 1777930731 | 26.67° C | 63% | 1011.7 hPa | 0 mm | - | 360 W/m² | - |
| 1777930427 | 26.67° C | 63% | 1012 hPa | 0 mm | - | 662 W/m² | - |
| 1777930124 | 26.11° C | 65% | 1011.8 hPa | 0 mm | - | 812 W/m² | - |
| 1777929820 | 26.11° C | 66% | 1012.2 hPa | 0 mm | - | 409 W/m² | - |
| 1777929518 | 26.11° C | 65% | 1012.3 hPa | 0 mm | - | 342 W/m² | - |
| 1777929214 | 26.11° C | 65% | 1012.2 hPa | 0 mm | - | 736 W/m² | - |
| 1777928912 | 26.11° C | 65% | 1012.3 hPa | 0 mm | - | 436 W/m² | - |
| 1777928608 | 26.11° C | 65% | 1012.5 hPa | 0 mm | - | 400 W/m² | - |
| 1777928306 | 25.56° C | 66% | 1012.6 hPa | 0 mm | - | 342 W/m² | - |
| 1777928003 | 25.56° C | 66% | 1012.6 hPa | 0 mm | - | 244 W/m² | - |
| 1777927701 | 25.56° C | 66% | 1012.7 hPa | 0 mm | - | 278 W/m² | - |
| 1777927400 | 25.56° C | 66% | 1012.7 hPa | 0 mm | - | 337 W/m² | - |
| 1777927099 | 25.56° C | 66% | 1012.8 hPa | 0 mm | - | 307 W/m² | - |
| 1777926795 | 25.56° C | 67% | 1012.8 hPa | 0 mm | - | 358 W/m² | - |
| 1777926490 | 25.56° C | 65% | 1013.2 hPa | 0 mm | - | 326 W/m² | - |
| 1777926188 | 25.56° C | 64% | 1013 hPa | 0 mm | - | 349 W/m² | - |
| 1777925884 | 25.56° C | 65% | 1013 hPa | 0 mm | - | 382 W/m² | - |
| 1777925582 | 25.56° C | 64% | 1012.9 hPa | 0 mm | - | 381 W/m² | - |
| 1777925280 | 26.11° C | 65% | 1013 hPa | 0 mm | - | 379 W/m² | - |
| 1777924975 | 26.11° C | 64% | 1013.1 hPa | 0 mm | - | 421 W/m² | - |
| 1777924672 | 26.11° C | 64% | 1013 hPa | 0 mm | - | 477 W/m² | - |
| 1777924368 | 26.11° C | 65% | 1013.3 hPa | 0 mm | - | 367 W/m² | - |
* Rain latest hour (hover to see other rain measurements)
** Current wind speed in m/s (hover to see current wind gust speed)